Overview Statistics Trail Chart Weather Telemetry Raw packets
 

This is the latest recevied weather packets stored in our database for station/object DC4AT. If no packets are shown the sender has not sent any weather packets the latest 10 day(s).

<< 3 4 5 6 7 8 9 >>
Time Temp. Humidity Pressure Rain* Wind** Luminosity Snow
1788529632 24.44° C 65% 1009.3 hPa 0 mm - 137 W/m² -
1788529032 24.44° C 66% 1009 hPa 0 mm - 167 W/m² -
1788528432 23.89° C 68% 1009.1 hPa 0 mm - 281 W/m² -
1788527832 23.89° C 68% 1009 hPa 0 mm - 309 W/m² -
1788527232 23.89° C 69% 1009.1 hPa 0 mm - 285 W/m² -
1788526632 23.89° C 70% 1009.4 hPa 0 mm - 232 W/m² -
1788526032 23.89° C 70% 1009.4 hPa 0 mm - 214 W/m² -
1788525432 23.89° C 71% 1009.4 hPa 0 mm - 149 W/m² -
1788524832 23.33° C 71% 1009.4 hPa 0 mm - 165 W/m² -
1788524232 23.33° C 74% 1009.4 hPa 0 mm - 128 W/m² -
1788523632 23.33° C 74% 1009.3 hPa 0 mm - 90 W/m² -
1788523032 23.33° C 75% 1009.3 hPa 0 mm - 216 W/m² -
1788522432 22.78° C 78% 1009.4 hPa 0 mm - 285 W/m² -
1788521832 22.22° C 78% 1009.6 hPa 0 mm - 195 W/m² -
1788521232 22.22° C 79% 1010 hPa 0 mm - 97 W/m² -
1788520632 22.22° C 80% 1010 hPa 0 mm - 125 W/m² -
1788520032 21.67° C 81% 1010 hPa 0 mm - 116 W/m² -
1788519432 21.67° C 82% 1010 hPa 0 mm - 302 W/m² -
1788518832 21.67° C 83% 1010 hPa 0 mm - 185 W/m² -
1788518232 21.11° C 83% 1010.2 hPa 0 mm - 359 W/m² -
1788517632 21.11° C 83% 1010.3 hPa 0 mm - 95 W/m² -
1788517032 21.11° C 83% 1010.2 hPa 0 mm - 134 W/m² -
1788516432 21.11° C 83% 1010.4 hPa 0 mm - 105 W/m² -
1788515832 21.11° C 83% 1010.5 hPa 0 mm - 141 W/m² -
1788515232 21.11° C 83% 1010.9 hPa 0 mm - 127 W/m² -

* Rain latest hour (hover to see other rain measurements)
** Current wind speed in m/s (hover to see current wind gust speed)